Home > Weather > Spokane > Past weeks

Flag for USA Past Weather in Spokane, Washington, USA — Yesterday and Last 2 Weeks

Now
97 °F

Sunny.


Feels Like: 93 °F
Forecast: 62 / 97 °F
Wind: 3 mph from North

Location: Felts Field

Current Time: Jul 29, 2016 at 2:45:37 PM

Latest Report: Jul 29, 2016 at 1:53 PM


Visibility: 10 mi

Pressure: 29.84 "Hg (28.02 "Hg at 569m altitude)

Humidity: 19%

Dew Point: 48 °F

Location of SpokaneLocation

Past Weather in Spokane — Graph

°F

Spokane Temperature Yesterday

Maximum temperature yesterday: 96 °F (at 3:53 PM)
Minimum temperature yesterday: 61 °F (at 4:53 AM)
Average temperature yesterday: 79 °F

High & Low Weather Summary for the Past Weeks

 TemperatureHumidityPressure
High96 °F (Jul 28, 3:53 PM)97% (Jul 23, 2:53 AM)30.18 "Hg (Jul 23, 2:53 AM)
Low51 °F (Jul 20, 4:53 AM)15% (Jul 21, 2:53 PM)29.83 "Hg (Jul 17, 5:53 PM)
Average71 °F50%29.98 "Hg
* Reported Jul 14 12:53 PM — Jul 29 12:53 PM, Spokane, Weather by CustomWeather, © 2016

Note: Actual official high and low records may vary slightly from our data, if they occured in-between our weather recording intervals... More about our weather records

Advertising

Spokane Weather History for the Previous 24 Hours

Scroll right to see more
 ConditionsComfort  
Time TempWeatherWind HumidityBarometerVisibility
12:53 PM
Fri, Jul 29
94 °FScattered clouds.3 mph22%29.87 "Hg10 mi
11:53 AM91 °FPassing clouds.5 mph26%29.89 "Hg10 mi
10:53 AM88 °FSunny.8 mph30%29.91 "Hg10 mi
9:53 AM83 °FSunny.6 mph38%29.93 "Hg10 mi
8:53 AM77 °FSunny.No wind47%29.94 "Hg10 mi
7:53 AM71 °FSunny.No wind57%29.94 "Hg10 mi
6:53 AM69 °FSunny.No wind57%29.94 "Hg10 mi
5:53 AM62 °FClear.5 mph73%29.93 "Hg10 mi
4:53 AM64 °FClear.3 mph68%29.93 "Hg10 mi
3:53 AM64 °FClear.3 mph70%29.93 "Hg10 mi
2:53 AM65 °FClear.3 mph68%29.93 "Hg10 mi
1:53 AM67 °FClear.No wind59%29.93 "Hg10 mi
12:53 AM68 °FClear.No wind57%29.92 "Hg10 mi
11:53 PM
Thu, Jul 28
70 °FClear.5 mph51%29.92 "Hg10 mi
10:53 PM73 °FClear.3 mph46%29.92 "Hg10 mi
9:53 PM75 °FClear.3 mph42%29.92 "Hg10 mi
8:53 PM80 °FSunny.No wind36%29.91 "Hg10 mi
7:53 PM87 °FSunny.No wind28%29.91 "Hg10 mi
6:53 PM93 °FSunny.5 mph22%29.91 "Hg10 mi
5:53 PM95 °FSunny.3 mph19%29.93 "Hg10 mi
4:53 PM95 °FSunny.3 mph19%29.94 "Hg10 mi
3:53 PM96 °FScattered clouds.No wind20%29.96 "Hg10 mi
2:53 PM94 °FPassing clouds.3 mph21%29.98 "Hg10 mi
Weather by CustomWeather, © 2016

See weather overviewHow to use our weather pages